Total_Precipitation_Accumulation
1.67 1.59 2.60 2.67 2.44 2.19 2.09 2.09 2.22 2.31 2.37 2.38 2.33 2.18 2.03 2.04 2.15 2.29 2.38 2.30 2.25 2.19 2.21 2.20 2.27 2.29 2.16 1.91 1.92 2.10 2.37 2.52 2.41 2.35 2.36 2.37 2.61 2.63 2.78 2.97 2.97 2.96 3.01
1.27 1.48 2.49 2.51 2.27 2.07 2.07 2.15 2.16 2.13 2.14 2.24 2.35 2.20 2.10 2.14 2.24 2.32 2.37 2.31 2.22 2.11 2.11 2.22 2.34 2.29 2.12 1.98 2.00 2.21 2.37 2.45 2.45 2.61 2.92 2.88 2.97 3.03 2.98 2.97 3.02 3.09 3.05
1.08 1.29 1.93 2.35 2.21 2.08 2.06 2.05 2.14 2.16 2.10 2.11 2.19 2.19 2.11 2.30 2.43 2.45 2.44 2.37 2.31 2.19 2.18 2.18 2.16 2.19 2.01 2.07 2.27 2.33 2.24 2.30 2.57 2.74 3.15 3.44 3.08 3.05 3.04 3.08 3.00 3.11 3.12
0.94 1.14 1.68 2.35 2.25 2.18 2.22 2.26 2.31 2.27 2.06 1.97 1.96 1.92 1.96 2.16 2.39 2.55 2.62 2.48 2.48 2.39 2.25 2.09 2.01 2.14 2.05 2.10 2.33 2.28 2.18 2.33 2.62 2.66 2.87 3.25 3.17 3.19 3.35 3.45 3.36 3.32 3.36
0.99 1.11 1.76 2.44 2.24 2.18 2.24 2.39 2.35 2.21 2.13 1.99 1.93 1.93 1.96 2.17 2.41 2.57 2.54 2.49 2.55 2.52 2.38 2.25 2.13 2.24 2.21 2.19 2.21 2.23 2.30 2.42 2.57 2.30 2.53 2.96 3.68 3.79 3.25 3.49 3.66 3.54 3.34
0.88 1.02 1.59 2.35 2.22 2.13 2.17 2.39 2.27 2.11 2.16 2.05 1.96 2.03 2.15 2.42 2.66 2.67 2.59 2.67 2.59 2.55 2.40 2.37 2.28 2.31 2.27 2.23 2.21 2.28 2.41 2.47 2.21 2.21 2.49 2.83 3.46 3.75 3.09 3.14 3.30 3.37 3.30
0.88 0.95 1.31 2.04 2.12 2.08 2.14 2.25 2.18 2.21 2.27 2.11 2.01 2.07 2.23 2.42 2.59 2.71 2.69 2.74 2.72 2.73 2.61 2.48 2.40 2.27 2.19 2.20 2.15 2.22 2.38 2.21 1.84 2.18 2.40 2.84 3.17 3.31 2.91 2.86 3.00 3.24 3.54
0.99 0.92 1.09 1.70 1.90 1.95 2.14 2.13 2.12 2.15 2.12 2.04 2.07 2.13 2.20 2.30 2.44 2.52 2.56 2.63 2.65 2.66 2.67 2.53 2.40 2.23 2.16 2.06 2.16 2.31 2.29 1.85 1.44 1.79 2.21 2.80 3.41 3.34 2.88 2.70 2.84 3.14 3.56
1.36 1.17 1.17 1.29 1.43 1.75 2.13 2.13 2.17 2.18 2.00 1.91 1.92 1.97 1.99 2.05 2.18 2.24 2.31 2.42 2.46 2.53 2.50 2.37 2.27 2.25 2.23 2.10 2.05 2.13 2.08 1.80 1.58 1.76 1.72 2.67 3.49 3.33 2.88 2.64 2.66 2.88 3.20
1.37 1.31 1.24 1.24 1.27 1.59 1.77 2.02 2.25 2.28 2.11 1.89 1.81 1.79 1.92 1.90 1.94 2.07 2.09 2.37 2.53 2.54 2.47 2.38 2.31 2.22 2.27 2.22 2.09 1.99 1.90 1.62 1.39 1.48 1.90 2.64 3.42 3.33 2.93 2.63 2.49 2.43 2.65
1.29 1.32 1.25 1.24 1.35 1.64 1.78 1.82 2.11 2.25 2.21 1.78 1.52 1.56 1.56 1.51 1.61 1.74 1.81 2.34 2.54 2.75 2.72 2.56 2.37 2.24 2.14 2.09 2.07 1.94 1.55 1.32 1.30 1.48 2.00 3.01 3.58 3.56 3.06 2.68 2.46 2.27 2.19
1.12 1.14 1.14 1.14 1.20 1.37 1.52 1.89 2.05 1.84 1.90 1.55 1.45 1.41 1.41 1.49 1.56 1.39 1.60 2.12 2.35 2.57 2.66 2.50 2.38 2.13 1.84 1.65 1.63 1.60 1.37 1.17 1.18 1.39 2.13 3.28 3.83 3.88 3.31 2.79 2.37 2.14 2.11
0.98 0.91 0.86 0.91 0.93 1.06 1.27 1.42 1.65 1.87 1.86 1.79 1.70 1.59 1.60 1.48 1.35 1.34 1.49 1.68 1.90 2.08 2.13 2.16 2.10 1.83 1.63 1.56 1.52 1.38 1.30 1.11 1.19 1.38 2.23 3.20 3.79 4.03 3.66 3.05 2.50 2.35 2.42
1.02 1.02 0.85 0.77 0.80 0.87 0.98 1.12 1.32 1.52 1.61 1.61 1.51 1.38 1.59 1.56 1.39 1.41 1.59 1.71 1.77 1.94 2.20 2.26 2.18 1.92 1.69 1.52 1.47 1.33 1.24 1.16 1.18 1.33 2.05 2.73 3.34 3.75 3.81 3.41 2.86 2.57 2.53
1.03 1.10 0.97 0.78 0.76 0.85 0.91 0.94 0.99 1.23 1.35 1.37 1.48 1.36 1.39 1.42 1.32 1.28 1.37 1.63 1.73 1.81 2.06 2.17 2.04 1.97 1.93 1.82 1.66 1.53 1.42 1.33 1.33 1.30 1.69 2.20 2.73 3.34 3.81 3.73 3.31 2.78 2.61
0.91 0.97 0.94 0.84 0.83 0.86 0.83 0.77 0.78 0.84 1.05 1.09 1.09 1.00 1.16 1.33 1.32 1.35 1.30 1.47 1.75 1.85 1.92 1.94 1.89 1.94 1.93 1.87 1.73 1.66 1.60 1.40 1.48 1.47 1.57 1.66 1.92 2.43 3.20 3.66 3.45 2.99 2.77
0.79 0.82 0.87 0.89 0.89 0.88 0.89 0.86 0.80 0.81 0.90 1.01 1.03 1.00 1.11 1.22 1.32 1.32 1.24 1.35 1.61 1.83 1.89 1.89 1.86 1.95 1.87 1.72 1.74 1.74 1.70 1.56 1.60 1.64 1.62 1.59 1.52 1.80 2.45 3.15 3.32 3.17 3.10
0.62 0.68 0.75 0.76 0.83 0.87 0.90 0.95 0.91 0.93 0.94 0.95 1.00 0.97 0.99 1.14 1.30 1.42 1.37 1.32 1.52 1.78 2.02 2.18 2.06 2.03 1.99 1.87 1.89 1.84 1.70 1.72 1.69 1.69 1.63 1.63 1.66 1.55 1.75 2.13 2.58 3.00 3.20
0.50 0.51 0.57 0.65 0.75 0.82 0.88 0.99 0.96 0.98 1.13 1.17 1.07 0.98 1.03 1.15 1.23 1.47 1.61 1.52 1.59 1.81 1.94 2.03 2.08 1.99 1.98 1.93 1.78 1.74 1.66 1.72 1.78 1.62 1.60 1.61 1.68 1.65 1.59 1.44 1.66 2.14 2.69
0.48 0.47 0.50 0.58 0.64 0.66 0.80 0.95 1.06 1.03 1.11 1.32 1.35 1.34 1.38 1.43 1.44 1.59 1.73 1.76 1.79 1.91 1.93 2.12 2.37 2.22 2.02 1.97 1.79 1.69 1.65 1.67 1.69 1.67 1.72 1.72 1.72 1.68 1.64 1.48 1.44 1.39 1.80
0.47 0.44 0.50 0.57 0.61 0.62 0.73 0.87 0.99 1.10 1.24 1.43 1.50 1.54 1.67 1.71 1.72 1.85 1.95 2.02 1.98 1.91 2.00 2.20 2.63 2.60 2.30 2.06 2.05 1.94 1.80 1.74 1.76 1.70 1.81 1.88 1.78 1.73 1.76 1.68 1.54 1.39 1.31
0.44 0.43 0.45 0.57 0.66 0.70 0.76 0.91 1.10 1.35 1.41 1.56 1.77 1.77 1.76 1.80 1.85 1.92 2.12 2.23 2.19 2.19 2.27 2.34 2.65 2.88 2.65 2.45 2.46 2.66 2.44 2.22 1.85 1.55 1.57 1.66 1.71 1.75 1.73 1.75 1.65 1.51 1.46
0.42 0.49 0.53 0.64 0.83 1.00 1.08 1.32 1.65 1.91 1.97 1.91 1.95 2.01 2.00 2.00 2.06 2.01 2.08 2.27 2.29 2.28 2.36 2.57 2.88 3.25 3.27 2.96 2.72 2.94 2.73 2.43 2.31 1.79 1.45 1.47 1.61 1.73 1.75 1.80 1.76 1.62 1.55
0.44 0.58 0.76 0.97 1.25 1.47 1.58 1.76 2.03 2.18 2.23 2.12 2.10 2.12 2.16 2.08 2.01 2.01 2.06 2.21 2.38 2.52 2.65 2.71 2.68 3.14 3.52 3.36 3.12 2.72 2.44 2.30 2.44 2.31 1.82 1.48 1.50 1.56 1.63 1.64 1.74 1.81 1.74
0.67 0.89 1.24 1.52 1.72 1.85 1.89 1.93 2.18 2.33 2.50 2.50 2.37 2.23 2.18 2.19 2.15 2.05 2.02 2.04 2.08 2.20 2.36 2.51 2.57 2.85 3.13 3.34 3.31 3.08 2.77 2.58 2.12 2.13 2.20 1.96 1.66 1.42 1.40 1.52 1.71 1.79 1.79
1.09 1.32 1.56 1.73 1.88 1.85 1.83 1.84 1.98 2.18 2.35 2.37 2.39 2.35 2.27 2.20 2.13 1.99 1.90 1.94 1.96 1.96 2.10 2.23 2.36 2.65 2.88 3.05 3.14 3.05 2.96 2.89 2.58 2.27 2.06 2.02 1.88 1.63 1.45 1.44 1.51 1.60 1.67